TimeEDT,TemperatureF,Dew PointF,Humidity,Sea Level PressureIn,VisibilityMPH,Wind Direction,Wind SpeedMPH,Gust SpeedMPH,PrecipitationIn,Events,Conditions,WindDirDegrees,DateUTC
12:51 AM,21.0,8.1,57,29.91,10.0,West,11.5,19.6,N/A,,Mostly Cloudy,260,2013-04-03 04:51:00
1:51 AM,19.9,8.1,60,29.91,10.0,WSW,10.4,-,N/A,,Partly Cloudy,250,2013-04-03 05:51:00
2:51 AM,19.0,9.0,65,29.91,10.0,West,9.2,17.3,N/A,,Clear,260,2013-04-03 06:51:00
3:51 AM,19.0,10.0,68,29.91,10.0,WSW,10.4,18.4,N/A,,Clear,250,2013-04-03 07:51:00
4:51 AM,19.0,10.9,71,29.93,7.0,West,11.5,18.4,0.00,Snow,Light Snow,260,2013-04-03 08:51:00
5:27 AM,19.4,10.4,68,29.86,6.0,West,11.5,17.3,0.00,Snow,Light Snow,260,2013-04-03 09:27:00
5:43 AM,19.4,12.2,74,29.86,6.0,West,9.2,-,0.00,Snow,Light Snow,260,2013-04-03 09:43:00
5:51 AM,19.0,12.0,74,29.94,5.0,West,5.8,19.6,0.00,Snow,Light Snow,260,2013-04-03 09:51:00
5:57 AM,19.4,12.2,74,29.87,2.5,West,6.9,-,0.00,Snow,Light Snow,260,2013-04-03 09:57:00
6:01 AM,17.6,12.2,79,29.87,3.0,West,9.2,-,0.00,Snow,Light Snow,270,2013-04-03 10:01:00
6:44 AM,17.6,6.8,63,29.89,10.0,WNW,11.5,23.0,0.00,,Scattered Clouds,290,2013-04-03 10:44:00
6:51 AM,18.0,6.1,60,29.98,10.0,West,8.1,20.7,0.00,,Partly Cloudy,260,2013-04-03 10:51:00
7:33 AM,17.6,6.8,63,29.91,10.0,West,10.4,-,N/A,,Mostly Cloudy,260,2013-04-03 11:33:00
7:51 AM,18.0,10.0,71,30.00,10.0,West,11.5,19.6,N/A,,Scattered Clouds,260,2013-04-03 11:51:00
8:51 AM,19.9,6.1,55,30.00,10.0,West,9.2,18.4,N/A,,Clear,260,2013-04-03 12:51:00
9:51 AM,21.9,5.0,48,30.00,10.0,West,11.5,24.2,N/A,,Clear,270,2013-04-03 13:51:00
10:51 AM,25.0,5.0,43,30.01,10.0,West,11.5,24.2,N/A,,Clear,270,2013-04-03 14:51:00
11:51 AM,26.1,5.0,41,30.00,10.0,WSW,19.6,26.5,N/A,,Clear,250,2013-04-03 15:51:00
12:51 PM,28.0,5.0,38,30.01,10.0,West,8.1,27.6,N/A,,Clear,280,2013-04-03 16:51:00
1:51 PM,28.9,3.9,35,30.02,10.0,West,18.4,29.9,N/A,,Clear,260,2013-04-03 17:51:00
2:51 PM,30.9,5.0,33,30.03,10.0,West,16.1,24.2,N/A,,Clear,260,2013-04-03 18:51:00
3:51 PM,30.9,6.1,35,30.04,10.0,West,13.8,32.2,N/A,,Partly Cloudy,270,2013-04-03 19:51:00
4:51 PM,30.9,6.1,35,30.05,10.0,West,11.5,25.3,N/A,,Mostly Cloudy,270,2013-04-03 20:51:00
5:51 PM,30.9,7.0,37,30.07,10.0,West,8.1,25.3,N/A,,Overcast,280,2013-04-03 21:51:00
6:51 PM,30.0,6.1,36,30.11,10.0,West,10.4,18.4,N/A,,Overcast,260,2013-04-03 22:51:00
7:51 PM,28.9,10.0,45,30.14,10.0,Variable,6.9,19.6,N/A,,Overcast,0,2013-04-03 23:51:00
8:51 PM,28.9,10.0,45,30.16,10.0,Variable,6.9,-,N/A,,Overcast,0,2013-04-04 00:51:00
9:51 PM,27.0,14.0,58,30.20,10.0,Variable,5.8,-,N/A,,Partly Cloudy,0,2013-04-04 01:51:00
10:51 PM,26.1,12.0,55,30.21,10.0,West,5.8,-,N/A,,Partly Cloudy,270,2013-04-04 02:51:00
11:51 PM,24.1,12.0,60,30.22,10.0,Variable,6.9,-,N/A,,Clear,0,2013-04-04 03:51:00